Theta_e
273 272 272 271 271 271 270 270 270 269 269 269 269 269 269 268 269 269 269 270 270 270 271 271 271 271 272 272 272 273 273 273 274 274 275 276 276 276 277 278 279 279 281 283 285 287 288 290 291 293 294 296 298 298 299 300 301 302 303 304 305 306
272 272 271 271 271 270 270 269 269 269 269 268 268 268 268 268 268 268 268 269 269 269 270 270 270 271 271 271 272 272 272 272 273 274 274 275 276 276 277 277 277 278 279 280 282 284 286 288 289 291 293 295 296 297 297 298 299 300 301 302 303 304
272 272 271 271 270 270 269 269 269 269 268 268 267 267 267 267 267 268 268 268 268 269 269 269 270 270 270 271 271 271 271 272 272 273 273 274 275 275 276 277 276 277 278 279 280 282 283 285 287 289 291 293 295 295 295 297 298 299 300 300 301 301
272 271 270 270 269 269 269 268 268 268 268 267 267 267 267 266 267 267 267 267 268 268 269 269 269 269 269 270 270 270 270 271 272 272 273 274 274 275 275 275 276 276 277 277 278 280 282 284 285 287 290 292 293 293 293 294 296 298 298 299 299 300
271 271 270 269 269 268 268 268 268 268 267 267 266 266 266 266 266 266 266 266 267 268 268 268 268 268 268 269 269 269 270 270 271 272 272 273 274 274 274 274 275 276 276 277 277 278 280 282 283 285 288 291 292 291 291 292 294 296 297 298 298 299
270 270 269 269 268 268 267 267 267 267 267 266 266 266 266 265 265 265 265 266 266 267 267 267 267 267 268 268 268 269 269 269 270 271 271 272 273 274 274 274 274 275 276 276 276 277 278 280 281 283 286 290 291 289 289 290 292 293 295 297 297 297
270 269 269 268 268 267 267 266 267 266 266 266 265 265 265 265 265 265 265 265 266 266 266 266 266 267 267 267 267 268 268 268 269 270 271 271 272 273 273 273 273 274 275 275 275 276 277 278 280 282 285 288 288 287 287 289 290 291 293 295 296 296
270 269 268 268 267 267 266 266 266 266 266 265 265 265 264 264 264 264 264 265 265 266 266 266 266 266 266 266 266 267 267 267 268 269 270 271 271 271 272 272 272 273 273 274 274 275 276 277 278 280 284 286 285 284 285 287 288 290 291 293 294 295
269 269 268 267 267 266 265 265 265 265 265 264 264 264 264 263 264 263 264 264 264 265 265 265 265 265 265 265 266 266 266 266 267 268 269 270 270 270 270 271 271 272 272 273 273 274 275 276 277 280 282 283 283 283 284 285 287 288 289 291 292 294
269 268 267 267 266 265 265 265 264 264 264 264 263 263 263 263 263 263 263 264 264 264 265 264 264 265 265 265 265 265 265 266 266 267 268 269 269 269 269 270 270 271 271 272 272 273 274 275 276 278 280 281 281 283 283 283 285 286 288 289 291 292
268 267 267 266 265 264 264 264 264 264 263 263 263 263 262 262 262 262 263 263 263 264 264 264 264 264 264 264 264 265 265 265 265 266 266 267 267 268 268 269 269 270 271 271 272 272 273 274 275 277 278 279 280 281 282 282 283 284 286 288 290 291
268 267 266 265 264 264 263 263 263 263 263 262 262 262 262 262 262 262 262 262 263 263 263 263 263 263 263 263 264 264 264 264 264 264 265 265 266 267 267 268 269 269 269 270 271 271 272 273 274 275 276 278 279 280 281 282 282 283 285 286 288 290
267 266 265 264 264 263 263 263 263 262 262 262 262 261 261 261 261 261 262 262 262 262 262 263 263 263 263 263 263 263 263 263 263 264 264 264 265 266 266 267 268 268 268 269 270 270 271 271 272 274 275 277 278 279 280 281 282 282 283 285 287 289
266 265 264 264 263 262 262 262 262 261 261 261 261 261 261 261 261 261 261 261 262 262 262 262 262 262 262 262 262 262 262 262 263 263 264 264 264 265 265 266 266 267 267 268 268 269 270 270 271 273 274 275 277 279 279 280 281 282 282 283 285 287
265 264 264 263 262 262 262 262 261 261 261 261 260 260 260 260 260 260 261 261 261 261 262 262 262 261 261 261 261 261 261 262 262 262 263 263 263 264 264 264 265 266 266 266 267 268 269 269 270 272 273 275 276 278 279 279 279 279 280 281 283 285
264 264 263 262 262 261 261 261 260 260 260 260 260 260 260 260 260 260 260 260 261 261 261 261 261 261 261 260 261 261 261 261 262 262 262 262 263 263 263 263 264 264 265 265 266 267 268 269 270 271 272 274 276 277 278 278 277 277 278 279 281 284
263 263 262 261 261 261 260 260 260 260 259 259 259 259 259 259 259 260 260 260 260 260 260 260 260 260 260 260 260 260 261 261 261 261 261 262 262 262 262 263 263 263 264 264 264 265 266 268 269 270 271 273 274 275 276 276 276 276 277 278 279 282
262 261 261 261 260 260 259 259 259 259 259 259 259 259 259 259 259 259 259 259 260 260 260 259 259 259 259 259 259 260 260 260 260 261 261 261 261 261 262 262 262 263 263 263 264 264 265 266 268 269 270 272 273 274 275 275 276 276 277 277 279 280
261 260 260 260 259 259 258 258 258 258 258 258 258 258 258 258 258 258 259 259 259 259 259 258 258 258 258 259 259 259 259 260 260 260 260 260 260 261 261 261 261 262 262 263 263 264 264 266 267 268 269 271 272 273 274 275 275 276 276 277 279 280
260 259 259 259 259 258 258 258 257 257 257 257 257 257 257 257 257 257 258 258 258 258 258 257 257 258 258 258 258 259 259 259 259 259 259 260 260 260 260 261 261 261 262 262 263 263 264 265 266 267 268 270 271 273 274 274 275 276 276 277 278 280
260 259 259 259 258 258 257 257 257 256 256 256 256 256 256 256 256 257 257 257 257 257 256 256 257 257 257 258 258 258 258 258 258 259 259 259 259 259 260 260 260 261 262 262 263 263 263 264 266 267 268 269 271 272 273 274 275 275 276 277 277 279
259 259 259 258 258 257 257 256 256 255 255 255 255 255 255 255 256 256 256 256 256 256 256 256 256 256 257 257 257 257 257 258 258 258 258 258 258 259 259 259 260 260 261 262 263 263 264 264 265 267 268 269 270 272 273 274 274 275 276 276 277 278
258 258 258 258 257 257 256 256 255 255 255 255 255 255 255 255 255 255 255 255 255 255 255 255 255 256 256 256 256 257 257 257 257 257 257 258 258 258 258 259 259 259 260 261 262 263 264 264 265 266 267 268 270 271 273 274 274 275 276 277 277 278
258 257 257 257 257 256 256 255 255 255 254 254 255 255 255 254 254 254 254 254 254 254 254 255 255 255 255 255 256 256 256 256 256 257 257 257 257 257 258 258 258 259 260 260 261 262 263 264 265 265 267 268 270 271 272 273 274 275 276 277 278 278
257 257 257 257 256 256 255 255 254 254 254 254 255 255 254 254 254 254 254 254 254 254 254 254 255 255 255 255 255 255 256 256 256 256 256 257 257 257 257 258 259 259 260 261 261 262 263 264 265 266 267 268 269 270 271 273 274 275 276 277 278 278
257 257 257 256 256 255 255 255 254 254 254 255 255 255 254 254 254 253 254 254 254 254 255 255 255 255 255 255 255 255 255 256 256 256 256 256 257 257 258 258 259 260 260 261 262 262 263 264 265 265 266 267 268 270 271 272 273 274 275 277 277 278
256 256 256 256 256 255 255 255 254 254 254 255 255 254 253 254 253 253 253 254 254 254 255 254 254 255 255 255 255 255 255 256 256 256 256 256 257 257 258 258 259 260 260 261 261 262 262 263 264 265 267 267 268 269 270 271 272 273 274 276 277 277
256 255 255 256 256 255 255 254 254 254 254 255 254 254 253 253 253 253 253 254 254 254 254 254 254 255 255 255 255 255 255 256 256 256 256 257 257 257 258 258 259 260 260 261 261 262 262 263 264 265 266 267 267 268 269 270 271 272 273 275 276 277
256 255 255 255 255 255 254 254 254 254 254 254 254 253 253 253 252 252 253 253 253 254 254 254 254 254 255 255 255 255 255 256 256 256 256 257 257 257 258 258 259 259 260 260 261 261 262 262 263 264 265 266 266 267 268 269 270 272 273 274 276 278
255 255 254 254 255 255 254 254 254 254 254 254 253 253 253 253 252 252 253 253 253 253 253 254 254 254 254 255 255 255 255 255 256 256 256 256 257 257 257 258 258 258 259 259 260 260 261 262 262 263 264 265 266 267 268 270 271 272 273 274 275 277
255 254 254 254 254 254 254 254 255 254 254 254 253 253 252 253 252 252 252 253 253 253 253 254 254 254 254 254 255 255 255 255 256 256 256 257 257 258 258 258 259 259 259 260 260 260 261 262 263 264 265 266 267 269 270 271 272 273 274 275 275 276
254 254 254 254 254 254 254 254 255 255 254 254 253 253 252 252 252 252 252 253 253 253 253 253 253 254 254 254 255 255 255 255 256 256 257 257 258 258 258 259 260 261 261 262 262 263 263 264 265 266 267 268 269 270 271 272 272 273 274 275 276 276
254 254 254 254 254 253 253 254 254 255 254 254 253 253 252 252 252 252 252 253 253 253 253 253 253 253 254 254 254 255 255 255 256 256 257 257 258 258 258 259 261 262 263 264 265 265 266 266 267 268 268 269 269 270 270 271 271 272 273 274 275 276
254 254 254 253 253 253 253 254 254 255 254 254 253 253 252 252 252 252 252 253 253 253 253 253 253 253 254 254 254 255 255 255 256 256 257 257 257 258 258 259 261 262 263 264 265 266 266 266 267 267 267 267 268 268 269 270 271 272 273 274 275 277
254 253 253 253 253 253 253 253 255 255 254 254 253 252 252 252 252 252 253 253 253 253 253 253 253 253 254 254 254 255 255 255 256 256 256 257 257 258 258 259 260 261 262 263 263 264 264 264 265 265 265 265 266 267 269 269 270 272 273 274 275 276
253 253 253 253 253 253 252 253 255 255 254 253 253 252 252 253 253 253 253 253 253 253 253 253 253 253 254 254 254 254 255 255 256 256 256 257 257 257 258 258 259 260 260 261 261 262 262 262 262 262 262 263 265 267 268 269 270 272 274 275 276 276
253 253 253 253 253 252 253 254 255 255 254 253 253 252 253 253 253 254 254 253 253 253 253 253 253 253 253 254 254 254 255 255 256 256 256 257 257 257 258 258 258 259 259 259 260 260 260 260 260 261 262 263 265 266 267 269 272 274 275 274 274 275
253 253 253 253 253 253 253 254 255 254 253 253 253 253 253 253 253 254 254 253 253 253 253 253 253 253 253 254 254 255 255 256 256 256 256 256 257 257 257 258 258 258 258 258 259 258 258 259 259 260 261 262 263 265 266 267 269 271 271 271 271 271
Wind_Speed
13 15 15 16 17 18 19 18 19 21 22 23 24 24 26 27 27 27 28 28 27 28 28 29 30 29 30 29 28 31 35 36 36 36 35 35 35 34 33 33 33 31 30 29 28 27 26 26 25 25 23 22 21 21 21 21 21 21 20 19 18 17
13 14 15 15 16 18 18 18 19 21 22 24 24 25 28 29 28 28 29 27 26 27 27 28 29 29 30 29 28 30 33 34 35 35 35 35 35 34 33 33 33 32 31 30 28 28 27 27 26 25 23 22 21 21 21 21 21 21 21 20 20 19
12 13 14 14 15 17 18 18 18 19 21 23 24 25 28 30 29 29 30 27 26 27 26 27 28 28 29 29 28 29 31 32 33 33 33 34 34 34 34 33 32 32 31 30 29 28 28 28 27 26 24 22 22 22 21 20 21 21 21 21 21 21
11 12 13 14 15 17 18 18 18 19 20 21 24 24 26 28 28 29 30 27 26 26 25 25 27 28 28 28 27 29 30 31 32 32 33 34 33 33 33 32 31 31 31 31 29 29 29 28 29 27 25 23 22 23 23 21 20 20 20 21 22 22
10 11 13 14 15 16 18 18 18 19 19 20 23 23 25 27 26 28 30 26 25 25 24 25 26 27 29 29 28 29 29 29 31 32 33 33 33 33 32 31 31 31 31 31 30 30 29 29 29 28 25 22 22 24 24 22 21 20 20 21 22 22
10 11 12 13 14 15 17 17 17 18 18 20 22 22 24 26 25 29 30 26 26 25 23 26 28 29 31 30 31 31 29 29 30 31 32 32 32 32 32 31 31 31 31 31 31 30 29 29 29 28 26 22 22 24 24 23 21 20 20 19 20 21
10 11 11 13 13 14 17 16 16 18 17 19 22 21 23 25 25 28 29 27 26 24 22 24 28 29 29 29 32 32 30 30 30 31 33 32 31 32 32 31 32 32 31 31 31 30 29 29 28 27 26 22 22 24 23 23 22 21 20 20 19 20
9 10 11 12 13 14 16 16 16 17 16 18 20 19 23 25 24 27 28 25 24 23 22 23 26 27 26 27 31 31 31 33 33 33 34 32 31 31 31 31 31 31 30 30 29 28 29 28 26 25 24 22 24 25 24 23 23 22 21 21 20 20
9 9 10 12 12 14 15 15 16 16 16 19 19 19 23 24 24 27 27 23 21 22 21 23 25 25 24 26 29 28 30 34 34 34 35 34 33 31 29 31 31 30 30 29 28 28 28 27 25 23 22 23 26 26 25 24 23 23 22 22 21 21
8 9 10 11 12 14 15 15 16 15 16 19 18 19 24 23 24 28 26 21 22 21 21 23 23 22 23 26 27 26 28 32 34 34 35 35 34 31 30 29 29 30 31 29 28 28 27 26 24 21 21 25 27 26 26 25 24 23 23 23 22 21
7 8 10 11 12 14 16 16 16 15 18 19 18 21 24 22 25 26 22 21 22 21 21 23 22 21 23 25 24 24 26 30 32 34 35 35 34 34 33 29 29 31 31 29 29 28 26 25 23 21 22 25 26 26 27 26 24 24 23 23 24 23
7 8 9 10 12 14 16 17 16 17 20 20 20 23 24 24 26 24 20 21 22 20 22 23 21 22 23 23 23 23 25 28 29 31 34 33 33 35 33 31 33 33 30 29 30 28 27 25 23 22 23 24 25 25 27 26 25 24 23 22 24 24
6 7 8 10 11 13 15 16 16 18 20 19 20 23 24 25 25 22 21 22 21 21 23 22 21 24 25 24 24 23 24 25 25 27 29 29 31 34 33 34 37 35 32 31 29 28 27 27 26 25 25 25 25 25 26 26 26 25 23 22 23 24
5 6 7 8 11 14 15 14 16 18 18 17 19 22 23 24 23 22 22 22 21 22 22 21 22 25 25 26 26 26 27 27 26 26 26 26 28 30 32 35 36 36 36 34 33 32 30 28 28 27 26 26 26 25 25 26 26 25 24 23 23 24
5 6 6 8 10 13 13 13 16 16 15 17 19 21 21 21 21 21 21 21 21 22 21 21 23 25 26 27 28 30 30 29 28 27 26 26 27 26 29 32 33 34 35 35 37 39 35 31 30 29 28 28 26 25 25 26 27 27 26 25 25 25
4 4 6 8 10 11 12 13 14 13 14 17 19 19 19 20 19 19 20 20 20 20 20 21 23 25 26 28 29 30 28 27 28 28 27 27 28 28 30 31 30 31 32 34 36 39 39 38 35 30 28 27 26 26 27 28 29 29 29 28 26 25
3 4 6 8 10 11 13 13 12 13 15 16 17 17 18 18 18 18 18 19 19 19 20 22 23 25 26 28 28 27 26 26 27 27 27 28 29 30 31 31 30 30 32 34 34 36 40 41 36 32 30 28 28 29 29 29 30 30 30 30 28 26
2 5 7 9 11 12 12 12 11 13 14 14 16 16 16 16 16 17 17 17 18 18 19 21 23 25 25 26 25 25 26 27 26 27 29 31 31 31 31 32 34 33 33 35 34 34 39 43 40 36 34 31 30 30 29 29 30 30 30 31 29 28
4 6 8 9 11 13 12 12 11 12 14 15 16 15 15 15 16 16 16 17 17 17 19 21 23 24 24 24 24 25 25 25 27 30 30 31 32 34 35 36 37 37 37 39 37 35 39 45 44 39 36 33 30 29 29 29 30 30 30 30 29 28
6 8 9 10 12 13 11 11 13 14 15 16 15 14 14 15 15 16 16 16 16 19 22 23 22 21 22 23 23 23 24 25 27 29 29 30 33 37 38 38 38 41 41 40 39 37 38 44 45 39 35 33 29 28 29 29 29 30 30 30 29 28
8 9 11 13 13 12 11 13 14 15 15 16 15 15 15 16 16 15 15 16 19 22 24 22 20 20 21 22 22 23 24 25 26 28 30 31 32 33 36 37 38 43 43 41 42 41 39 42 44 40 35 33 29 27 28 29 29 31 31 29 29 29
10 12 13 14 13 13 13 14 13 13 15 16 16 17 17 17 16 15 17 20 22 23 22 21 21 21 21 22 23 24 25 26 27 29 30 29 29 29 33 34 35 39 42 42 42 42 40 40 41 39 35 32 30 27 27 29 30 31 31 30 29 30
12 13 13 14 14 14 14 14 13 15 16 16 17 19 19 18 17 18 21 22 22 22 23 23 22 21 21 23 24 25 26 26 27 28 28 28 30 30 32 33 32 34 38 40 40 40 39 38 37 37 34 31 30 29 28 29 30 30 30 30 30 30
12 13 14 14 14 14 14 13 14 16 16 16 19 20 19 18 20 21 22 22 23 23 24 24 23 22 23 23 24 25 27 27 27 28 28 29 30 31 31 32 30 29 33 36 35 35 35 34 33 33 32 31 31 30 29 29 30 30 29 30 30 29
12 14 15 15 14 14 13 13 15 16 16 18 20 19 19 20 21 22 22 23 24 24 24 25 24 24 24 25 25 26 28 28 28 28 28 28 29 29 30 29 27 26 28 30 31 31 32 32 31 31 31 30 29 30 30 30 31 30 29 29 30 30
13 15 16 16 15 14 14 14 15 16 18 19 20 19 19 21 21 21 23 24 25 26 26 26 26 26 26 27 27 27 28 28 29 29 28 27 27 27 27 27 25 24 25 27 28 29 29 29 29 29 29 28 27 29 30 31 31 31 30 30 31 32
13 14 16 17 16 15 14 14 15 17 19 20 19 19 20 21 21 22 23 24 25 26 27 27 27 27 27 27 26 27 28 28 29 28 28 26 25 25 26 26 24 24 25 25 26 27 27 27 27 27 27 26 26 27 29 30 31 31 32 31 32 32
12 14 17 18 17 15 15 15 15 18 20 19 19 19 20 20 21 22 23 24 26 26 26 27 28 28 27 26 25 26 27 27 28 28 28 26 26 26 26 26 25 24 24 24 25 26 27 26 26 27 26 26 26 27 29 30 30 32 32 32 32 33
12 14 16 19 18 16 16 16 16 18 19 18 18 19 19 20 20 21 23 24 25 26 26 27 28 27 27 26 26 26 27 27 27 28 28 27 27 27 26 25 25 24 23 25 26 27 28 28 28 28 28 28 28 30 31 31 31 32 33 32 32 30
14 15 17 19 20 18 18 18 18 18 18 18 18 18 18 19 19 20 22 24 24 26 26 25 26 26 27 27 27 27 27 27 27 28 29 29 28 28 28 27 26 25 26 28 29 29 29 30 29 30 32 32 32 32 33 32 32 32 34 34 33 31
14 16 18 20 20 19 19 19 19 19 18 18 18 16 17 17 18 19 22 24 24 25 25 24 25 26 27 28 28 28 28 27 27 28 30 31 29 29 30 31 30 29 29 31 32 31 31 33 35 37 38 37 34 34 35 35 35 35 35 35 35 34
15 17 19 20 19 19 19 20 20 19 19 18 17 15 15 16 17 20 22 23 24 24 24 24 25 26 26 27 29 29 30 29 27 26 28 31 30 29 30 31 33 33 32 34 36 37 38 41 44 43 40 37 35 36 37 38 39 39 39 37 36 35
15 17 19 19 19 19 20 21 21 20 19 18 15 13 14 15 17 20 22 23 23 24 24 25 25 26 26 27 28 28 29 31 30 28 28 29 29 28 29 30 31 31 31 31 33 34 34 35 37 36 34 34 35 37 38 39 40 40 40 39 36 32
16 17 18 18 19 19 20 21 21 20 18 17 14 13 14 15 17 20 21 22 23 24 24 24 25 25 26 26 27 27 28 29 30 31 33 33 29 26 26 27 28 28 27 26 28 29 29 30 30 31 33 34 36 37 38 39 40 40 39 39 36 31
16 17 18 18 19 20 21 22 21 19 18 16 14 13 15 16 17 18 20 21 22 24 24 24 25 25 25 25 26 26 27 27 27 29 33 37 36 31 26 23 22 24 25 25 27 28 29 30 30 31 33 34 35 36 36 36 38 39 37 35 33 28
17 18 18 19 20 20 21 22 21 18 16 14 13 14 16 16 16 17 18 20 20 21 23 24 24 24 25 25 26 26 26 26 27 28 29 31 34 35 33 29 25 24 24 27 29 29 28 29 31 32 33 33 33 33 33 35 36 36 32 29 28 26
18 19 19 20 20 21 21 21 19 16 15 14 14 15 16 16 15 16 18 19 19 20 21 23 23 24 25 26 26 25 25 26 27 27 27 26 26 28 31 34 33 31 28 27 27 27 28 29 32 32 30 29 28 28 30 31 30 25 19 15 15 15
19 20 21 21 20 20 20 20 18 16 16 15 14 14 15 15 15 16 18 19 20 20 21 22 23 24 25 25 24 24 25 26 26 26 26 26 25 25 26 29 33 35 33 28 26 28 31 33 33 30 26 23 22 21 21 20 15 7 3 3 2 3
Wind_Direction
33 30 28 26 24 23 22 22 21 21 21 20 19 19 16 16 17 16 17 17 16 15 14 14 15 13 15 17 15 13 16 17 16 16 14 14 15 11 9 12 12 8 4 3 3 2 2 3 3 3 4 5 3 1 1 360 358 355 351 350 347 344
33 31 27 24 22 21 20 20 20 19 18 17 18 17 15 17 18 15 14 14 13 13 11 10 12 11 11 14 13 11 13 13 13 12 10 11 12 9 8 10 9 6 2 1 360 359 360 1 0 0 2 2 360 359 359 360 359 356 352 349 348 348
35 31 27 23 21 19 18 17 16 15 15 13 13 14 13 14 15 13 12 11 10 10 8 6 8 8 9 12 10 8 9 9 9 8 6 7 8 7 8 8 6 3 1 0 359 357 357 359 358 359 0 358 357 356 355 358 358 356 353 350 348 348
33 30 26 23 21 17 15 14 13 12 11 10 11 11 9 10 11 10 10 10 9 8 5 3 4 4 6 8 7 5 6 5 6 6 5 4 4 4 5 4 2 0 359 359 359 357 356 356 356 358 359 357 354 353 352 354 355 352 352 352 350 348
34 29 26 23 20 16 12 11 10 9 8 6 7 7 6 6 6 5 7 8 6 5 3 1 1 2 4 6 4 2 2 1 2 3 2 2 2 1 2 2 360 358 358 358 357 357 356 354 353 356 359 355 352 351 351 351 351 348 347 349 350 349
37 29 25 21 18 15 11 9 6 6 6 4 3 2 1 3 2 1 5 7 4 3 0 359 0 2 3 2 0 -0 359 357 357 359 359 359 359 358 359 359 357 357 357 356 355 355 355 352 350 353 357 354 349 349 349 347 346 344 343 342 344 347
38 30 27 21 17 13 8 6 4 3 3 1 0 358 357 359 359 358 1 3 1 359 356 355 357 360 360 357 356 358 357 355 354 355 356 357 356 355 356 354 353 355 355 354 353 352 351 350 348 350 354 351 347 347 345 343 341 339 339 339 338 340
38 32 28 20 16 12 6 3 2 1 360 359 359 355 354 356 355 354 358 358 355 353 352 351 353 355 354 352 353 354 354 353 353 353 355 356 353 352 353 351 350 351 350 350 351 348 347 347 347 349 350 346 344 344 341 339 338 336 335 336 335 336
38 31 25 20 15 9 5 1 359 358 356 356 357 354 353 354 351 352 356 353 349 349 349 348 348 349 348 347 349 349 349 350 350 351 353 353 352 351 349 347 347 347 345 345 346 345 344 345 346 348 346 341 341 342 339 337 335 332 331 331 331 332
34 28 21 17 10 5 3 358 357 357 354 353 353 351 352 351 348 351 354 350 347 347 345 344 344 344 343 344 345 345 344 346 347 349 350 350 350 349 345 344 344 342 342 342 342 341 342 342 343 343 341 339 339 339 337 334 332 329 327 327 329 329
31 26 19 12 6 2 359 355 355 353 350 351 349 348 350 348 346 350 349 344 344 343 340 341 341 340 341 341 342 341 340 343 344 345 347 348 347 345 344 343 340 339 339 339 338 338 340 339 337 336 336 336 336 334 333 331 328 326 323 323 325 325
32 28 19 9 4 0 354 352 351 348 346 346 345 345 346 345 346 348 343 340 341 339 338 339 338 339 340 340 339 337 337 340 340 341 344 345 342 342 342 339 339 340 338 335 335 335 335 333 330 330 330 331 331 330 329 327 325 323 321 318 320 321
36 30 16 5 2 356 349 347 345 342 342 342 341 341 341 342 344 343 338 338 338 336 337 338 337 337 338 338 338 335 335 336 335 337 340 339 338 339 338 336 337 338 336 334 333 331 329 327 327 327 326 326 328 327 326 325 323 321 318 315 314 314
37 27 14 2 353 347 344 343 338 337 339 338 336 335 336 340 341 336 335 336 335 335 337 336 335 336 336 337 337 335 336 336 334 335 335 334 334 335 334 334 335 334 334 334 331 328 326 324 324 325 324 324 325 325 324 322 320 318 314 311 309 308
38 25 7 351 342 339 339 335 331 332 332 329 329 331 333 335 334 332 332 333 332 333 335 334 334 334 334 335 335 335 336 336 335 335 333 331 331 330 329 331 331 330 331 330 328 328 326 322 322 324 323 322 321 321 321 319 316 314 310 306 305 303
34 7 346 338 332 328 327 327 327 325 321 322 325 328 329 328 328 329 328 328 330 332 332 332 332 331 331 332 333 334 334 333 332 333 332 330 329 328 327 328 327 326 326 325 325 325 323 322 323 323 320 318 317 317 317 314 312 311 307 304 302 299
16 342 331 325 320 320 323 324 323 318 316 320 322 322 323 323 323 324 324 324 327 328 329 330 329 328 328 329 331 331 329 329 330 330 329 328 326 326 325 324 322 321 321 322 322 320 319 320 321 320 317 315 314 314 313 311 310 309 307 304 300 297
336 321 316 312 315 319 321 321 319 317 316 317 317 317 318 319 319 320 321 321 323 325 327 327 325 324 325 326 327 327 326 327 327 325 326 326 324 323 321 320 320 319 318 319 318 316 316 317 318 318 317 314 313 313 311 308 308 306 304 302 300 297
296 306 308 310 314 317 319 319 316 314 313 312 313 314 314 314 315 316 317 317 320 322 322 322 321 321 321 322 322 322 322 322 321 322 324 324 321 320 320 319 318 317 316 317 316 313 313 314 317 318 316 314 313 311 308 305 304 301 299 299 297 296
305 312 311 309 312 316 316 311 308 310 311 310 312 311 310 311 311 312 314 315 315 315 315 317 318 315 315 316 316 316 316 316 316 317 319 318 317 317 318 317 316 315 315 314 313 312 310 311 314 315 313 311 309 307 304 302 300 297 295 295 295 293
308 310 309 308 311 314 308 304 309 312 309 308 310 308 306 308 309 310 310 308 307 310 313 315 313 310 311 311 309 309 310 310 311 312 313 313 312 312 312 312 312 313 313 312 311 311 309 309 311 313 311 309 306 303 301 299 297 294 292 292 292 291
305 306 307 308 311 310 308 309 312 307 303 306 306 303 304 308 308 306 303 303 305 308 311 310 308 306 307 306 305 305 305 306 307 309 309 308 305 304 305 306 306 307 308 310 311 311 310 309 309 311 311 308 304 300 298 297 294 291 290 291 290 288
305 303 303 307 309 308 308 309 304 298 300 302 299 300 306 309 305 302 303 304 306 306 308 309 307 303 302 303 303 303 303 304 304 304 303 303 302 301 299 300 300 300 303 307 309 309 309 308 308 309 308 304 300 299 297 294 291 289 288 288 286 283
298 296 297 302 304 302 304 301 295 296 298 295 296 304 310 306 303 304 305 305 305 305 307 309 307 304 302 303 303 302 302 302 302 300 300 300 300 298 296 295 295 293 295 301 304 304 304 304 303 303 302 299 298 297 295 293 290 289 287 285 282 279
287 289 294 299 299 299 301 296 293 293 292 292 301 310 309 305 305 307 305 304 304 305 307 307 307 306 305 304 304 302 300 301 301 300 300 300 298 296 294 294 294 291 290 294 297 298 298 300 300 298 297 296 296 295 295 294 292 290 287 282 279 277
281 286 292 297 298 299 298 293 291 289 288 295 307 310 306 306 309 307 304 305 305 306 307 308 309 310 308 307 307 304 301 302 302 300 300 299 296 293 292 292 293 292 290 291 294 296 297 298 299 298 296 295 295 295 295 295 295 294 290 283 279 277
281 285 291 296 299 299 297 294 289 285 289 300 308 307 305 307 308 304 304 305 305 307 310 311 311 311 310 310 309 305 303 303 302 300 300 299 295 291 290 291 292 291 289 289 290 293 296 298 298 297 296 297 297 296 296 296 297 297 293 287 281 279
279 281 288 295 300 298 297 295 288 285 293 303 307 305 305 306 304 302 303 304 306 309 311 310 310 312 312 312 310 306 304 304 302 300 299 297 294 290 288 289 290 290 289 289 289 291 293 296 296 295 296 298 299 297 295 295 297 299 297 292 285 280
276 279 284 291 297 299 298 297 293 293 298 303 305 305 305 303 301 301 303 305 307 309 310 309 310 312 312 311 310 307 305 304 301 298 296 295 293 292 290 289 289 288 287 288 289 291 293 293 293 294 295 296 297 296 294 293 295 298 299 294 288 283
276 279 282 287 294 299 299 298 300 302 303 305 307 307 303 300 300 302 303 304 306 308 309 310 310 310 309 308 308 307 305 304 303 299 295 294 292 291 291 289 286 285 285 286 286 289 291 290 288 289 292 294 294 293 291 290 291 292 293 290 288 285
276 279 282 287 293 299 299 300 304 307 306 306 308 306 300 299 302 303 303 305 307 309 310 309 307 306 306 307 308 308 307 305 303 299 296 296 295 291 288 287 285 282 281 281 280 282 282 282 285 290 290 288 288 288 288 288 288 288 287 285 282 281
279 281 284 288 293 296 297 301 306 308 307 307 309 306 300 301 302 301 302 305 308 309 309 307 306 307 309 310 310 310 309 309 307 300 295 295 296 294 289 285 284 284 283 280 280 279 277 278 285 291 290 286 287 290 290 289 288 287 286 285 280 274
282 282 284 289 294 294 295 299 304 307 309 310 310 305 301 300 298 297 300 305 308 310 309 307 307 310 312 311 311 310 309 310 310 307 303 300 299 298 295 291 288 288 288 287 286 287 286 286 290 294 295 294 295 294 292 290 289 287 286 286 282 271
284 284 286 289 292 293 296 300 304 307 309 311 309 303 298 296 293 294 299 305 309 311 311 309 309 311 310 309 311 311 310 310 310 311 314 314 310 304 299 297 297 298 299 298 299 303 305 304 302 301 301 301 298 295 293 291 288 286 284 284 281 270
286 286 288 289 291 294 296 299 303 307 309 309 307 300 295 293 292 294 301 307 309 310 310 310 310 310 309 308 310 312 312 310 310 311 315 319 320 318 312 307 305 307 309 310 310 311 312 312 310 308 306 303 300 297 295 292 289 286 281 278 277 272
286 287 289 290 292 294 295 296 302 308 309 307 305 298 292 290 291 295 302 307 308 307 307 309 310 309 308 309 310 311 310 310 310 311 312 315 321 324 323 321 318 317 317 317 317 317 316 316 317 317 313 308 305 303 301 297 292 286 278 270 269 269
287 289 291 292 294 294 293 296 303 309 309 307 303 295 289 286 289 296 304 309 308 305 305 308 309 308 309 310 310 310 310 309 310 312 312 312 315 317 319 320 321 322 323 321 321 322 322 324 327 326 320 316 316 316 312 304 291 277 266 260 259 256
288 290 292 294 295 294 293 299 308 312 310 306 299 290 286 286 289 296 305 310 310 310 310 310 310 310 311 311 309 309 310 310 310 311 311 311 312 313 313 316 319 323 325 327 328 330 332 334 335 334 331 331 331 333 337 336 321 287 202 154 150 154